Time,TemperatureF,DewpointF,PressureIn,WindDirection,WindDirectionDegrees,WindSpeedMPH,WindSpeedGustMPH,Humidity,HourlyPrecipIn,Conditions,Clouds,dailyrainin,SoftwareType,DateUTC
2013-06-29 00:01:00,70.0,67.0,29.55,North,8,0.0,-999.0,91,-99.99,,,-99.99,,2013-06-29 04:01:00,
2013-06-29 00:11:00,70.0,67.0,29.55,North,8,0.0,-999.0,91,-99.99,,,-99.99,,2013-06-29 04:11:00,
2013-06-29 00:24:00,70.0,67.0,29.55,North,8,0.0,-999.0,91,-99.99,,,-99.99,,2013-06-29 04:24:00,
2013-06-29 00:32:00,70.0,67.0,29.55,North,8,0.0,-999.0,91,-99.99,,,-99.99,,2013-06-29 04:32:00,
2013-06-29 00:41:00,70.0,68.0,29.54,East,90,0.0,-999.0,92,-99.99,,,-99.99,,2013-06-29 04:41:00,
2013-06-29 00:51:00,70.0,68.0,29.54,East,90,0.0,-999.0,92,-99.99,,,-99.99,,2013-06-29 04:51:00,
2013-06-29 01:01:00,70.0,68.0,29.54,East,90,0.0,-999.0,92,-99.99,,,-99.99,,2013-06-29 05:01:00,
2013-06-29 01:11:00,70.0,68.0,29.54,East,90,0.0,-999.0,92,-99.99,,,-99.99,,2013-06-29 05:11:00,
2013-06-29 01:21:00,70.0,68.0,29.54,East,90,0.0,-999.0,92,-99.99,,,-99.99,,2013-06-29 05:21:00,
2013-06-29 01:31:00,70.0,68.0,29.53,East,90,0.0,-999.0,92,-99.99,,,-99.99,,2013-06-29 05:31:00,
2013-06-29 01:42:00,70.0,68.0,29.51,East,90,0.0,-999.0,93,-99.99,,,-99.99,,2013-06-29 05:42:00,
2013-06-29 01:52:00,70.0,68.0,29.52,East,90,0.0,-999.0,93,-99.99,,,-99.99,,2013-06-29 05:52:00,
2013-06-29 02:01:00,71.0,69.0,29.51,East,90,0.0,-999.0,93,-99.99,,,-99.99,,2013-06-29 06:01:00,
2013-06-29 02:12:00,71.0,69.0,29.51,East,90,0.0,-999.0,93,-99.99,,,-99.99,,2013-06-29 06:12:00,
2013-06-29 02:22:00,71.0,69.0,29.51,East,90,0.0,-999.0,93,-99.99,,,-99.99,,2013-06-29 06:22:00,
2013-06-29 02:34:00,71.0,69.0,29.51,East,90,0.0,-999.0,93,-99.99,,,-99.99,,2013-06-29 06:34:00,
2013-06-29 02:43:00,71.0,69.0,29.51,North,4,0.0,-999.0,93,-99.99,,,-99.99,,2013-06-29 06:43:00,
2013-06-29 02:53:00,71.0,69.0,29.50,North,4,0.0,-999.0,94,-99.99,,,-99.99,,2013-06-29 06:53:00,
2013-06-29 03:02:00,71.0,69.0,29.51,North,4,0.0,-999.0,94,-99.99,,,-99.99,,2013-06-29 07:02:00,
2013-06-29 03:12:00,71.0,69.0,29.51,North,4,0.0,-999.0,94,-99.99,,,-99.99,,2013-06-29 07:12:00,
2013-06-29 03:22:00,71.0,69.0,29.51,North,4,0.0,-999.0,94,-99.99,,,-99.99,,2013-06-29 07:22:00,
2013-06-29 03:33:00,70.0,68.0,29.51,North,4,0.0,-999.0,94,-99.99,,,-99.99,,2013-06-29 07:33:00,
2013-06-29 03:43:00,70.0,68.0,29.51,North,4,0.0,-999.0,94,-99.99,,,-99.99,,2013-06-29 07:43:00,
2013-06-29 03:53:00,71.0,69.0,29.51,NNE,12,0.0,-999.0,94,-99.99,,,-99.99,,2013-06-29 07:53:00,
2013-06-29 04:01:00,70.0,68.0,29.51,NNE,12,0.0,-999.0,94,-99.99,,,-99.99,,2013-06-29 08:01:00,
2013-06-29 04:12:00,71.0,69.0,29.51,NNE,12,0.0,-999.0,94,-99.99,,,-99.99,,2013-06-29 08:12:00,
2013-06-29 04:22:00,71.0,69.0,29.51,NNE,12,0.0,-999.0,94,-99.99,,,-99.99,,2013-06-29 08:22:00,
2013-06-29 04:33:00,71.0,69.0,29.51,NNE,12,0.0,-999.0,94,-99.99,,,-99.99,,2013-06-29 08:33:00,
2013-06-29 04:43:00,71.0,69.0,29.51,NNE,12,0.0,-999.0,94,-99.99,,,-99.99,,2013-06-29 08:43:00,
2013-06-29 05:02:00,70.0,68.0,29.52,NNE,12,0.0,-999.0,94,-99.99,,,-99.99,,2013-06-29 09:02:00,
2013-06-29 05:12:00,70.0,68.0,29.52,NNE,12,0.0,-999.0,94,-99.99,,,-99.99,,2013-06-29 09:12:00,
2013-06-29 05:22:00,70.0,68.0,29.52,NNE,12,0.0,-999.0,94,-99.99,,,-99.99,,2013-06-29 09:22:00,
2013-06-29 05:33:00,70.0,68.0,29.52,NNE,12,0.0,-999.0,94,-99.99,,,-99.99,,2013-06-29 09:33:00,
2013-06-29 05:42:00,70.0,68.0,29.53,NNE,12,0.0,-999.0,94,-99.99,,,-99.99,,2013-06-29 09:42:00,
2013-06-29 05:53:00,70.0,68.0,29.54,NNE,12,0.0,-999.0,94,-99.99,,,-99.99,,2013-06-29 09:53:00,
2013-06-29 06:01:00,70.0,68.0,29.54,NNE,12,0.0,-999.0,94,-99.99,,,-99.99,,2013-06-29 10:01:00,
2013-06-29 06:11:00,70.0,68.0,29.55,NW,316,0.0,-999.0,94,-99.99,,,-99.99,,2013-06-29 10:11:00,
2013-06-29 06:22:00,70.0,68.0,29.55,NW,316,0.0,-999.0,94,-99.99,,,-99.99,,2013-06-29 10:22:00,
2013-06-29 06:33:00,70.0,68.0,29.55,NW,316,0.0,-999.0,94,-99.99,,,-99.99,,2013-06-29 10:33:00,
2013-06-29 06:43:00,70.0,68.0,29.55,NW,316,0.0,-999.0,94,-99.99,,,-99.99,,2013-06-29 10:43:00,
2013-06-29 06:52:00,70.0,68.0,29.55,NW,316,0.0,-999.0,94,-99.99,,,-99.99,,2013-06-29 10:52:00,
2013-06-29 07:02:00,70.0,68.0,29.55,NW,316,0.0,-999.0,94,-99.99,,,-99.99,,2013-06-29 11:02:00,
2013-06-29 07:11:00,70.0,68.0,29.55,NW,316,0.0,-999.0,94,-99.99,,,-99.99,,2013-06-29 11:11:00,
2013-06-29 07:23:00,70.0,68.0,29.55,NW,316,0.0,-999.0,94,-99.99,,,-99.99,,2013-06-29 11:23:00,
2013-06-29 07:33:00,71.0,69.0,29.55,NW,317,0.0,-999.0,95,-99.99,,,-99.99,,2013-06-29 11:33:00,
2013-06-29 07:43:00,71.0,69.0,29.54,NW,317,0.0,-999.0,95,-99.99,,,-99.99,,2013-06-29 11:43:00,
2013-06-29 07:53:00,71.0,69.0,29.55,NW,317,0.0,-999.0,94,-99.99,,,-99.99,,2013-06-29 11:53:00,
2013-06-29 08:02:00,71.0,69.0,29.55,NW,317,0.0,-999.0,94,-99.99,,,-99.99,,2013-06-29 12:02:00,
2013-06-29 08:12:00,71.0,69.0,29.55,NNW,331,0.0,-999.0,94,-99.99,,,-99.99,,2013-06-29 12:12:00,
2013-06-29 08:22:00,71.0,69.0,29.56,NNW,331,0.0,-999.0,95,-99.99,,,-99.99,,2013-06-29 12:22:00,
2013-06-29 08:34:00,72.0,70.0,29.56,ESE,105,0.0,-999.0,94,-99.99,,,-99.99,,2013-06-29 12:34:00,
2013-06-29 08:43:00,72.0,70.0,29.57,ESE,105,0.0,-999.0,94,-99.99,,,-99.99,,2013-06-29 12:43:00,
2013-06-29 08:53:00,72.0,70.0,29.58,ESE,105,0.0,-999.0,94,-99.99,,,-99.99,,2013-06-29 12:53:00,
2013-06-29 09:02:00,72.0,70.0,29.58,ESE,105,0.0,-999.0,93,-99.99,,,-99.99,,2013-06-29 13:02:00,
2013-06-29 09:23:00,72.0,70.0,29.58,ENE,73,0.0,-999.0,93,-99.99,,,-99.99,,2013-06-29 13:23:00,
2013-06-29 09:34:00,73.0,71.0,29.58,ESE,102,0.0,-999.0,92,-99.99,,,-99.99,,2013-06-29 13:34:00,
2013-06-29 09:43:00,73.0,70.0,29.57,SSE,168,0.0,-999.0,91,-99.99,,,-99.99,,2013-06-29 13:43:00,
2013-06-29 09:53:00,74.0,71.0,29.58,SSE,167,0.0,-999.0,90,-99.99,,,-99.99,,2013-06-29 13:53:00,
2013-06-29 10:12:00,74.0,71.0,29.58,SSE,168,0.0,-999.0,90,-99.99,,,-99.99,,2013-06-29 14:12:00,
2013-06-29 10:23:00,74.0,71.0,29.59,SSE,168,0.0,-999.0,90,-99.99,,,-99.99,,2013-06-29 14:23:00,
2013-06-29 10:34:00,74.0,71.0,29.59,SSE,168,0.0,-999.0,90,-99.99,,,-99.99,,2013-06-29 14:34:00,
2013-06-29 10:44:00,73.0,70.0,29.57,SSE,166,0.0,-999.0,89,-99.99,,,-99.99,,2013-06-29 14:44:00,
2013-06-29 10:53:00,73.0,70.0,29.57,SSE,166,0.0,-999.0,90,-99.99,,,-99.99,,2013-06-29 14:53:00,
2013-06-29 11:02:00,74.0,71.0,29.57,SSE,166,0.0,-999.0,90,-99.99,,,-99.99,,2013-06-29 15:02:00,
2013-06-29 11:11:00,74.0,71.0,29.58,SSE,166,0.0,-999.0,91,-99.99,,,-99.99,,2013-06-29 15:11:00,
2013-06-29 11:22:00,74.0,71.0,29.57,SSE,165,0.0,-999.0,91,-99.99,,,-99.99,,2013-06-29 15:22:00,
2013-06-29 11:33:00,75.0,72.0,29.58,SSE,164,0.0,-999.0,90,-99.99,,,-99.99,,2013-06-29 15:33:00,
2013-06-29 11:42:00,75.0,72.0,29.59,SSE,149,0.0,-999.0,89,-99.99,,,-99.99,,2013-06-29 15:42:00,
2013-06-29 11:53:00,75.0,71.0,29.59,SE,146,1.0,-999.0,87,-99.99,,,-99.99,,2013-06-29 15:53:00,
2013-06-29 12:02:00,76.0,72.0,29.59,SE,146,0.0,-999.0,86,-99.99,,,-99.99,,2013-06-29 16:02:00,
2013-06-29 12:12:00,76.0,71.0,29.59,WSW,249,1.0,-999.0,84,-99.99,,,-99.99,,2013-06-29 16:12:00,
2013-06-29 12:22:00,78.0,72.0,29.59,SW,223,1.0,-999.0,83,-99.99,,,-99.99,,2013-06-29 16:22:00,
2013-06-29 12:33:00,79.0,71.0,29.59,SSW,205,1.0,-999.0,77,-99.99,,,-99.99,,2013-06-29 16:33:00,
2013-06-29 12:43:00,79.0,71.0,29.59,SSW,205,1.0,-999.0,77,-99.99,,,-99.99,,2013-06-29 16:43:00,
2013-06-29 12:53:00,80.0,72.0,29.59,South,174,1.0,-999.0,77,-99.99,,,-99.99,,2013-06-29 16:53:00,
2013-06-29 13:02:00,80.0,73.0,29.59,South,181,0.0,-999.0,79,-99.99,,,-99.99,,2013-06-29 17:02:00,
2013-06-29 13:12:00,80.0,72.0,29.59,South,181,1.0,-999.0,77,-99.99,,,-99.99,,2013-06-29 17:12:00,
2013-06-29 13:23:00,82.0,73.0,29.59,WNW,284,1.0,-999.0,74,-99.99,,,-99.99,,2013-06-29 17:23:00,
2013-06-29 13:34:00,82.0,73.0,29.59,SE,124,1.0,-999.0,74,-99.99,,,-99.99,,2013-06-29 17:34:00,
2013-06-29 13:42:00,82.0,72.0,29.59,SSE,152,1.0,-999.0,72,-99.99,,,-99.99,,2013-06-29 17:42:00,
2013-06-29 13:52:00,82.0,72.0,29.59,SSW,210,1.0,-999.0,71,-99.99,,,-99.99,,2013-06-29 17:52:00,
2013-06-29 14:02:00,82.0,70.0,29.59,South,187,2.0,-999.0,68,-99.99,,,-99.99,,2013-06-29 18:02:00,
2013-06-29 14:12:00,83.0,72.0,29.59,South,187,1.0,-999.0,69,-99.99,,,-99.99,,2013-06-29 18:12:00,
2013-06-29 14:22:00,83.0,71.0,29.59,South,177,2.0,-999.0,67,-99.99,,,-99.99,,2013-06-29 18:22:00,
2013-06-29 14:34:00,83.0,70.0,29.59,SSW,207,1.0,-999.0,65,-99.99,,,-99.99,,2013-06-29 18:34:00,
2013-06-29 14:43:00,83.0,70.0,29.59,SSW,211,1.0,-999.0,66,-99.99,,,-99.99,,2013-06-29 18:43:00,
2013-06-29 14:53:00,83.0,73.0,29.58,SW,220,1.0,-999.0,71,-99.99,,,-99.99,,2013-06-29 18:53:00,
2013-06-29 15:01:00,84.0,73.0,29.59,West,270,1.0,-999.0,70,-99.99,,,-99.99,,2013-06-29 19:01:00,
2013-06-29 15:12:00,84.0,71.0,29.59,West,268,2.0,-999.0,65,-99.99,,,-99.99,,2013-06-29 19:12:00,
2013-06-29 15:22:00,84.0,71.0,29.59,SSW,210,2.0,-999.0,66,-99.99,,,-99.99,,2013-06-29 19:22:00,
2013-06-29 15:34:00,85.0,71.0,29.59,WSW,237,2.0,-999.0,64,-99.99,,,-99.99,,2013-06-29 19:34:00,
2013-06-29 15:43:00,85.0,73.0,29.59,WSW,238,1.0,-999.0,67,-99.99,,,-99.99,,2013-06-29 19:43:00,
2013-06-29 15:54:00,85.0,72.0,29.59,SSW,209,1.0,-999.0,65,-99.99,,,-99.99,,2013-06-29 19:54:00,
2013-06-29 16:02:00,85.0,71.0,29.60,SSW,201,1.0,-999.0,64,-99.99,,,-99.99,,2013-06-29 20:02:00,
2013-06-29 16:12:00,85.0,71.0,29.60,SSW,201,1.0,-999.0,64,-99.99,,,-99.99,,2013-06-29 20:12:00,
2013-06-29 16:23:00,83.0,71.0,29.60,West,280,2.0,-999.0,68,-99.99,,,-99.99,,2013-06-29 20:23:00,
2013-06-29 16:33:00,82.0,71.0,29.61,South,187,1.0,-999.0,70,-99.99,,,-99.99,,2013-06-29 20:33:00,
2013-06-29 16:43:00,81.0,71.0,29.61,SSW,201,1.0,-999.0,71,-99.99,,,-99.99,,2013-06-29 20:43:00,
2013-06-29 16:52:00,80.0,70.0,29.61,South,182,1.0,-999.0,72,-99.99,,,-99.99,,2013-06-29 20:52:00,
2013-06-29 17:02:00,80.0,70.0,29.61,South,182,1.0,-999.0,72,-99.99,,,-99.99,,2013-06-29 21:02:00,
2013-06-29 17:11:00,79.0,69.0,29.62,SSW,195,1.0,-999.0,72,-99.99,,,-99.99,,2013-06-29 21:11:00,
2013-06-29 17:22:00,79.0,69.0,29.62,SW,218,1.0,-999.0,72,-99.99,,,-99.99,,2013-06-29 21:22:00,
2013-06-29 17:32:00,79.0,70.0,29.62,SSE,151,1.0,-999.0,73,-99.99,,,-99.99,,2013-06-29 21:32:00,
2013-06-29 17:42:00,78.0,69.0,29.62,SSE,152,1.0,-999.0,75,-99.99,,,-99.99,,2013-06-29 21:42:00,
2013-06-29 17:52:00,78.0,69.0,29.62,SSE,154,1.0,-999.0,75,-99.99,,,-99.99,,2013-06-29 21:52:00,
2013-06-29 18:01:00,78.0,69.0,29.62,SSE,165,1.0,-999.0,74,-99.99,,,-99.99,,2013-06-29 22:01:00,
2013-06-29 18:11:00,78.0,70.0,29.62,NNW,336,1.0,-999.0,76,-99.99,,,-99.99,,2013-06-29 22:11:00,
2013-06-29 18:22:00,78.0,69.0,29.62,SSW,200,1.0,-999.0,74,-99.99,,,-99.99,,2013-06-29 22:22:00,
2013-06-29 18:33:00,77.0,70.0,29.62,SSW,197,0.0,-999.0,78,-99.99,,,-99.99,,2013-06-29 22:33:00,
2013-06-29 18:43:00,77.0,69.0,29.62,SSE,157,0.0,-999.0,76,-99.99,,,-99.99,,2013-06-29 22:43:00,
2013-06-29 18:53:00,77.0,69.0,29.62,West,265,1.0,-999.0,77,-99.99,,,-99.99,,2013-06-29 22:53:00,
2013-06-29 19:02:00,76.0,68.0,29.63,West,267,0.0,-999.0,77,-99.99,,,-99.99,,2013-06-29 23:02:00,
2013-06-29 19:12:00,76.0,68.0,29.63,West,259,1.0,-999.0,77,-99.99,,,-99.99,,2013-06-29 23:12:00,
2013-06-29 19:23:00,76.0,68.0,29.64,SSW,213,0.0,-999.0,77,-99.99,,,-99.99,,2013-06-29 23:23:00,
2013-06-29 19:34:00,76.0,69.0,29.64,SSW,209,0.0,-999.0,78,-99.99,,,-99.99,,2013-06-29 23:34:00,
2013-06-29 19:43:00,75.0,68.0,29.64,SSW,209,0.0,-999.0,80,-99.99,,,-99.99,,2013-06-29 23:43:00,
2013-06-29 19:52:00,75.0,69.0,29.64,SSW,209,0.0,-999.0,81,-99.99,,,-99.99,,2013-06-29 23:52:00,
2013-06-29 20:02:00,75.0,69.0,29.65,SSW,209,0.0,-999.0,81,-99.99,,,-99.99,,2013-06-30 00:02:00,
2013-06-29 20:12:00,74.0,68.0,29.65,SSW,209,0.0,-999.0,82,-99.99,,,-99.99,,2013-06-30 00:12:00,
2013-06-29 20:22:00,74.0,68.0,29.65,SSW,209,0.0,-999.0,83,-99.99,,,-99.99,,2013-06-30 00:22:00,
2013-06-29 20:33:00,74.0,69.0,29.65,SSW,209,0.0,-999.0,84,-99.99,,,-99.99,,2013-06-30 00:33:00,
2013-06-29 20:43:00,73.0,68.0,29.66,SSW,210,0.0,-999.0,83,-99.99,,,-99.99,,2013-06-30 00:43:00,
2013-06-29 20:52:00,73.0,68.0,29.67,SSW,210,0.0,-999.0,84,-99.99,,,-99.99,,2013-06-30 00:52:00,
2013-06-29 21:01:00,73.0,68.0,29.67,SSW,210,0.0,-999.0,85,-99.99,,,-99.99,,2013-06-30 01:01:00,
2013-06-29 21:11:00,72.0,68.0,29.67,SSW,210,0.0,-999.0,86,-99.99,,,-99.99,,2013-06-30 01:11:00,
2013-06-29 21:22:00,72.0,68.0,29.68,SSW,210,0.0,-999.0,87,-99.99,,,-99.99,,2013-06-30 01:22:00,
2013-06-29 21:33:00,72.0,68.0,29.68,SSW,210,0.0,-999.0,87,-99.99,,,-99.99,,2013-06-30 01:33:00,
2013-06-29 21:44:00,71.0,67.0,29.68,SSW,210,0.0,-999.0,88,-99.99,,,-99.99,,2013-06-30 01:44:00,
2013-06-29 21:53:00,71.0,67.0,29.69,SSW,210,0.0,-999.0,88,-99.99,,,-99.99,,2013-06-30 01:53:00,
2013-06-29 22:02:00,71.0,68.0,29.69,SSW,210,0.0,-999.0,89,-99.99,,,-99.99,,2013-06-30 02:02:00,
2013-06-29 22:11:00,71.0,68.0,29.70,SW,226,0.0,-999.0,89,-99.99,,,-99.99,,2013-06-30 02:11:00,
2013-06-29 22:24:00,71.0,68.0,29.70,SW,226,0.0,-999.0,89,-99.99,,,-99.99,,2013-06-30 02:24:00,
2013-06-29 22:34:00,70.0,67.0,29.70,SW,226,0.0,-999.0,89,-99.99,,,-99.99,,2013-06-30 02:34:00,
2013-06-29 22:43:00,70.0,67.0,29.70,SW,226,0.0,-999.0,90,-99.99,,,-99.99,,2013-06-30 02:43:00,
2013-06-29 22:53:00,70.0,67.0,29.71,SW,226,0.0,-999.0,90,-99.99,,,-99.99,,2013-06-30 02:53:00,
2013-06-29 23:02:00,70.0,67.0,29.71,SW,226,0.0,-999.0,90,-99.99,,,-99.99,,2013-06-30 03:02:00,
2013-06-29 23:12:00,70.0,67.0,29.71,SW,226,0.0,-999.0,90,-99.99,,,-99.99,,2013-06-30 03:12:00,
2013-06-29 23:23:00,70.0,67.0,29.71,SW,226,0.0,-999.0,91,-99.99,,,-99.99,,2013-06-30 03:23:00,
2013-06-29 23:33:00,70.0,67.0,29.71,SW,226,0.0,-999.0,91,-99.99,,,-99.99,,2013-06-30 03:33:00,
2013-06-29 23:43:00,70.0,67.0,29.71,SW,226,0.0,-999.0,91,-99.99,,,-99.99,,2013-06-30 03:43:00,
2013-06-29 23:53:00,70.0,67.0,29.72,SW,226,0.0,-999.0,91,-99.99,,,-99.99,,2013-06-30 03:53:00,